| time (UTC) | temp C | wind direction | speed KPH | gust KPH | rain 1hr cm | rain 24hr cm | rain mn cm | humidity % | barometer mb |
| 20260508200517 | -17 | 0.0 | 0.0 | 0.00 | 0.00 | 0.00 | 1009.1 | ||
| 20260508200015 | -17 | 0.0 | 0.0 | 0.00 | 0.00 | 0.00 | 1009.0 | ||
| 20260508195842 | 17 | 0 | 0.0 | 11.3 | 0.00 | 0.00 | 0.00 | 48 | 1012.0 |
| 20260508195840 | 17 | 0 | 0.0 | 4.8 | 0.00 | 0.00 | 0.00 | 47 | 1012.2 |
| 20260508195838 | 17 | 0 | 0.0 | 9.7 | 0.00 | 0.00 | 0.00 | 48 | 1012.3 |
| 20260508195836 | 17 | 160 | 3.2 | 12.9 | 0.00 | 0.00 | 0.00 | 47 | 1012.5 |
| 20260508154729 | 17 | 0 | 0.0 | 12.9 | 0.00 | 0.00 | 0.00 | 49 | 1012.5 |
| 20260508152955 | 11 | 0 | 0.0 | 0.0 | 0.00 | 0.00 | 0.00 | 61 | 1013.2 |
| 20260508152950 | -17 | 0.0 | 0.0 | 0.00 | 0.00 | 0.00 | 1013.3 | ||
| 20260508120228 | 8 | 0 | 0.0 | 0.0 | 0.00 | 0.00 | 0.00 | 67 | 1013.1 |
| 20260508010438 | 9 | 0 | 0.0 | 0.0 | 0.00 | 0.00 | 0.00 | 63 | 1013.1 |
| 20260508005900 | 10 | 0 | 0.0 | 0.0 | 0.00 | 0.00 | 0.00 | 61 | 1012.0 |
| 20260508005401 | 10 | 0 | 0.0 | 0.0 | 0.00 | 0.00 | 0.00 | 59 | 1012.1 |
| 20260508004900 | 10 | 0 | 0.0 | 0.0 | 0.00 | 0.00 | 0.00 | 56 | 1012.1 |
| 20260508004407 | 11 | 0 | 0.0 | 0.0 | 0.00 | 0.00 | 0.00 | 53 | 1012.1 |
| 20260508003435 | 12 | 0 | 0.0 | 0.0 | 0.00 | 0.00 | 0.00 | 48 | 1012.2 |
| 20260508002935 | 12 | 0 | 0.0 | 0.0 | 0.00 | 0.00 | 0.00 | 46 | 1011.9 |
| 20260508002648 | 12 | 0 | 0.0 | 0.0 | 0.00 | 0.00 | 0.00 | 44 | 1011.9 |
| 20260508002646 | 12 | 0 | 0.0 | 0.0 | 0.00 | 0.00 | 0.00 | 42 | 1011.9 |
| 20260508000550 | 13 | 0 | 0.0 | 3.2 | 0.00 | 0.00 | 0.00 | 42 | 1011.9 |
| 20260508000412 | 13 | 0 | 0.0 | 9.7 | 0.00 | 0.00 | 0.00 | 41 | 1011.8 |
| 20260507235435 | 13 | 0 | 0.0 | 9.7 | 0.00 | 0.00 | 0.00 | 41 | 1012.7 |
| 20260507234935 | 13 | 0 | 0.0 | 4.8 | 0.00 | 0.00 | 0.00 | 41 | 1012.7 |
| 20260507234435 | 13 | 0 | 0.0 | 0.0 | 0.00 | 0.00 | 0.00 | 40 | 1012.7 |
| 20260507233133 | 13 | 0 | 0.0 | 0.0 | 0.00 | 0.00 | 0.00 | 40 | 1012.6 |
| 20260507232633 | 14 | 0 | 0.0 | 11.3 | 0.00 | 0.00 | 0.00 | 39 | 1012.6 |
| 20260507232133 | 14 | 0 | 0.0 | 11.3 | 0.00 | 0.00 | 0.00 | 39 | 1012.6 |
| 20260507231633 | 15 | 0 | 0.0 | 8.0 | 0.00 | 0.00 | 0.00 | 39 | 1012.7 |
| 20260507231133 | 14 | 0 | 0.0 | 8.0 | 0.00 | 0.00 | 0.00 | 39 | 1012.7 |
| 20260507230633 | 14 | 0 | 0.0 | 0.0 | 0.00 | 0.00 | 0.00 | 39 | 1012.7 |
| 20260507230133 | 14 | 0 | 0.0 | 11.3 | 0.00 | 0.00 | 0.00 | 38 | 1012.7 |
| 20260507225633 | 15 | 0 | 0.0 | 11.3 | 0.00 | 0.00 | 0.00 | 36 | 1012.7 |
| 20260507225133 | 15 | 0 | 0.0 | 12.9 | 0.00 | 0.00 | 0.00 | 36 | 1012.6 |
| 20260507224633 | 15 | 0 | 0.0 | 12.9 | 0.00 | 0.00 | 0.00 | 35 | 1012.6 |
| 20260507224133 | 15 | 0 | 0.0 | 8.0 | 0.00 | 0.00 | 0.00 | 36 | 1011.7 |
| 20260507223633 | 15 | 0 | 0.0 | 9.7 | 0.00 | 0.00 | 0.00 | 36 | 1011.7 |
| 20260507223133 | 15 | 234 | 1.6 | 9.7 | 0.00 | 0.00 | 0.00 | 35 | 1011.8 |
| 20260507222633 | 15 | 0 | 0.0 | 9.7 | 0.00 | 0.00 | 0.00 | 36 | 1011.8 |
| 20260507221132 | 15 | 280 | 1.6 | 9.7 | 0.00 | 0.00 | 0.00 | 36 | 1011.9 |
| 20260507220632 | 15 | 282 | 1.6 | 9.7 | 0.00 | 0.00 | 0.00 | 36 | 1012.0 |
| 20260507220132 | 15 | 0 | 0.0 | 12.9 | 0.00 | 0.00 | 0.00 | 37 | 1012.1 |
| 20260507215632 | 15 | 0 | 0.0 | 12.9 | 0.00 | 0.00 | 0.00 | 38 | 1012.1 |
| 20260507215132 | 15 | 0 | 0.0 | 0.0 | 0.00 | 0.00 | 0.00 | 38 | 1012.1 |
| 20260507214632 | 15 | 0 | 0.0 | 0.0 | 0.00 | 0.00 | 0.00 | 38 | 1012.1 |
| 20260507214132 | 15 | 0 | 0.0 | 12.9 | 0.00 | 0.00 | 0.00 | 39 | 1012.0 |
| 20260507213632 | 14 | 0 | 0.0 | 17.7 | 0.00 | 0.00 | 0.00 | 40 | 1012.1 |
| 20260507213132 | 13 | 0 | 0.0 | 17.7 | 0.00 | 0.00 | 0.00 | 39 | 1012.0 |
| 20260507212632 | 14 | 0 | 0.0 | 19.3 | 0.00 | 0.00 | 0.00 | 39 | 1012.0 |
| 20260507212132 | 14 | 0 | 0.0 | 19.3 | 0.00 | 0.00 | 0.00 | 37 | 1011.9 |
| 20260507211632 | 15 | 0 | 0.0 | 17.7 | 0.00 | 0.00 | 0.00 | 37 | 1012.0 |
| 20260507211132 | 15 | 299 | 3.2 | 17.7 | 0.00 | 0.00 | 0.00 | 38 | 1012.0 |
| 20260507210227 | 15 | 0 | 0.0 | 20.9 | 0.00 | 0.00 | 0.00 | 37 | 1011.8 |
| 20260507205729 | 15 | 251 | 3.2 | 20.9 | 0.00 | 0.00 | 0.00 | 37 | 1012.0 |
| 20260507205227 | 15 | 292 | 3.2 | 17.7 | 0.00 | 0.00 | 0.00 | 37 | 1011.8 |
| 20260507204727 | 15 | 286 | 3.2 | 12.9 | 0.00 | 0.00 | 0.00 | 37 | 1011.9 |
| 20260507204227 | 15 | 281 | 3.2 | 14.5 | 0.00 | 0.00 | 0.00 | 37 | 1011.9 |
| 20260507203727 | 15 | 297 | 3.2 | 16.1 | 0.00 | 0.00 | 0.00 | 37 | 1011.8 |
| 20260507203227 | 14 | 284 | 3.2 | 16.1 | 0.00 | 0.00 | 0.00 | 37 | 1011.8 |
| 20260507202727 | 14 | 283 | 1.6 | 20.9 | 0.00 | 0.00 | 0.00 | 38 | 1011.8 |
| 20260507202227 | 15 | 263 | 6.4 | 20.9 | 0.00 | 0.00 | 0.00 | 37 | 1011.9 |
| 20260507201727 | 15 | 289 | 4.8 | 16.1 | 0.00 | 0.00 | 0.00 | 37 | 1011.8 |
| 20260507201227 | 14 | 305 | 4.8 | 12.9 | 0.00 | 0.00 | 0.00 | 40 | 1011.6 |